Showing default

OSCAR 23 (KITSAT 1), 22077

Orbit data source: Space-Track

OSCAR 23 (KITSAT 1), 22077 is a payload satellite owned by KAIST (KR) in LEO that was launched on Mon, 10 Aug 1992 UTC via an ARIANE 42P launch vehicle from the French Guiana (FRGUI). Payload-class satellites include a variety of spacecraft equipped with specific instruments for various scientific and technological missions. These include communications satellites like Starlink; space stations such as the ISS; scientific satellites like the Hubble; Earth observation satellites from companies like Planet Labs, Umbra, and HawkEye 360; GPS; miniature CubeSats for education and research; and military/defense satellites.

Loading next visibility...
Identifier
22077, 1992-052B
Orbit
LEO
Country
Flag of UnknownUnknown / SKOR
Related business
Manufacturer
SSTL
Mission
Non-operational Civil Communications
Bus & Motor
UOSAT, Unknown motor
Mass
48 kg wet, 48 kg dry
Launch date (UTC)
1992-08-10 (33 years ago)
Launch vehicle
ARIANE 42P
Launch site
French Guiana (FRGUI)
Object type
Payload
Rocket body
Debris
Shape & HBR
Hex Poly, 0.3 m
Radar Cross Section
0.353 m², Medium (>0.1 m² and < 1m²)

Expand to show TLE details & history
Last TLE update: 11 hours ago

TLE from 11 hours ago
0 OSCAR 23 (KITSAT 1)
1 22077U 92052B   26036.88752673 -.00000067  00000-0 -20546-4 0  9995
2 22077  66.0831 196.1785 0011419 314.6340 197.5214 12.86608493572794
Epoch: 2026-02-05T21:18Z
TLE epoch observation values (Epoch: 2026-02-05T21:18:02.309Z)
Latitude
25.35392°
Longitude
-91.43406°
Altitude
1,325.502 km
Speed
7.193 km/s
True Right ascension
00h 16m 26s
True Declination
25° 13' 51"
Sunlit
Object was in daylight at epoch
Visualization orbit readout
Latitude
Unknown
Longitude
Unknown
Altitude
Unknown
Speed
Unknown
Apparent Right ascension
Unknown
Apparent Declination
Unknown
Sunlit
N/A
Visualization observer readout
Local Sidereal Time
10:29:41
Azimuth
Unknown
Elevation
Unknown
Doppler factor
Unknown
Orbital elements
Apogee altitude
1,322.351 km
Perigee altitude
1,304.784 km
Semi-major axis
7,691.704 km
Eccentricity
0.00114
Inclination
66.0831°
RAAN
196.1785°
Arg. of periapsis
314.634°
True anomaly
197.48206°
Mean anomaly
197.5214°
Eccentric anomaly
197.50172°
Mean motion
3.21743 °/min
Orbital period
111.89 mins
BSTAR
-0.000020546
Loading maneuver chart data...
Computing Atmospheric mass density...
Loading historical data...
Loading historical data...
Loading historical data...
Loading historical data...
Loading historical data...
Loading historical data...
Loading historical data...

Documentation

Showing up to 5 results
|